Regional Weather Roundup
Issued by NWS Jackson, KY

Home | Current Version | Previous Version | Text Only | Print | Product List | Glossary Off
Versions: 1 2 3 4 5 6 7 8 9 10 11 12 13 14 15 16 17 18 19 20 21 22 23 24 25 26 27

000
ASUS43 KJKL 270610
RWRJKL

EAST KENTUCKY HOURLY WEATHER ROUNDUP
NATIONAL WEATHER SERVICE JACKSON KY
200 AM EDT WED JUL 27 2016

NOTE: "FAIR" INDICATES FEW OR NO CLOUDS BELOW 12,000 FEET WITH
NO SIGNIFICANT WEATHER AND/OR OBSTRUCTIONS TO VISIBILITY.

* THESE REPORTS ARE NOT UNDER NWS QUALITY CONTROL AND MAY NOT
  REPORT WEATHER SUCH AS PRECIPITATION AND FOG.

KYZ079-080-083-085-087-088-110-112-115-119-120-270700
...EASTERN KENTUCKY...

CITY           SKY/WX    TMP DP  RH WIND       PRES   REMARKS
JACKSON        CLEAR     76  71  85 SE3       30.03F
6HR MIN TEMP:  74; 6HR MAX TEMP:  82;

LONDON         CLEAR     75  71  87 CALM      30.02F
6HR MIN TEMP:  75; 6HR MAX TEMP:  88;

SOMERSET*      CLEAR     73  73 100 CALM      30.01F
MONTICELLO*    CLEAR    N/A N/A N/A W7        30.02F
WILLIAMSBURG*  CLEAR     75  75 100 CALM      30.02F
MIDDLESBORO*   CLEAR     73  72  95 CALM      30.03F
6HR MIN TEMP:  73; 6HR MAX TEMP:  85;

HARLAN APT*      N/A     72  70  94 CALM      30.06S
PIKE CO APT*     N/A     73  72  95 CALM      30.04F
BIG SANDY APT* CLEAR     72  72 100 CALM      30.03F
6HR MIN TEMP:  71; 6HR MAX TEMP:  77;

MOREHEAD APT*  FOG       72  70  94 CALM      30.04F VSB 1/4
ASHLAND*       PTCLDY    73  72  94 CALM      29.99S
$$

KYZ035-036-041-042-044-050-067-078-099-270700
...CENTRAL KENTUCKY...

CITY           SKY/WX    TMP DP  RH WIND       PRES   REMARKS
MT STERLING*   PTCLDY    72  70  94 CALM      30.03F
FLEMING/MASON* PTCLDY    72  71  98 CALM      30.03S
DANVILLE*      CLEAR     72  72 100 N3        30.02F
LEXINGTON      CLEAR     74  71  91 CALM      30.01F
6HR MIN TEMP:  73; 6HR MAX TEMP:  83;

FRANKFORT      CLEAR     75  72  90 CALM      29.99F
6HR MIN TEMP:  74; 6HR MAX TEMP:  79; 6HR PCP: TRACE;

LOUISVILLE     MOCLDY    79  72  79 CALM      29.98F
6HR MIN TEMP:  79; 6HR MAX TEMP:  82;

LEBANON*         N/A     73  73 100 N3        30.01S
GLASGOW*       CLEAR     77  77  98 CALM      29.99S
BOWLING GREEN  PTCLDY    81  76  84 CALM      29.98F
6HR MIN TEMP:  80; 6HR MAX TEMP:  91;

$$

KYZ091>093-OHZ055-061-077-WVZ005-015-034-035-042-270700
...SOUTHERN OHIO/WEST VIRGINIA...

CITY           SKY/WX    TMP DP  RH WIND       PRES   REMARKS
COVINGTON      CLOUDY    75  74  96 CALM      30.01F
COLUMBUS       CLOUDY    76  65  68 E3        30.01S
DAYTON         CLOUDY    74  68  81 N3        30.03F
WILMINGTON     CLOUDY    73  72  96 CALM      30.02F FOG
HUNTINGTON     FOG       71  70  96 S3        30.00F VSB 1/4
CHARLESTON     FOG       72  71  97 CALM      30.02S VSB 1/8
PINEVILLE*       N/A     70  67  91 MISG      30.12F FOG
BECKLEY          N/A     68  66  93 CALM      30.11F
BLUEFIELD        N/A     71  68  90 SW3       30.14F
LOGAN CO APT*  FOG       72  72 100 CALM      30.04F VSB<1/4
$$

VAZ002-007-008-TNZ017-027-036-066-071-270700
...SOUTHWEST VIRGINIA/EAST TENNESSEE...

CITY           SKY/WX    TMP DP  RH WIND       PRES   REMARKS
WISE*            N/A     73  68  83 CALM      30.13F
JONESVILLE*      N/A     73  72  94 CALM      30.06F
ABINGDON*        N/A     74  71  89 CALM      30.10S
BRISTOL        PTCLDY    73  70  90 CALM      30.06F
MORRISTOWN*    CLOUDY    79  73  83 CALM      30.03F
SEVIERVILLE*   PTCLDY    75  70  83 CALM      30.01F
KNOXVILLE      PTCLDY    78  73  84 NW8       30.01F
OAK RIDGE      CLOUDY    81  71  71 S3        30.02F
CROSSVILLE     CLEAR     73  70  90 CALM      30.07F
NASHVILLE      CLOUDY    76  73  91 CALM      29.99F
$$

...KEY TO REMARKS...
VSB - VISIBILITY IN MILES
WCI - WIND CHILL INDEX
HX  - HEAT INDEX

$$




USA.gov is the U.S. government's official web portal to all federal, state and local government web resources and services.